When you browse on this site, cookies collect data to enhance your experience and personalize the content and advertising you see.
Visit our Privacy Policy to learn more. By continuing to use the site, you agree to this use of cookies and data.
  • In Germany
  • List of Countries
  • For 7 days
  • Water Temperature
  • Weather Map
  • Weather Widgets
  • user-avatar
    Login

    Hourly Weather Bristol

    Today, 20 February, Thursday

    Time Temperature Precipitation Wind Pressure Humidity
    00:00 +6°C° 0 mm 7 mps 757 mmHg 87%
    01:00 +6°C° 0.1 mm 7 mps 757 mmHg 87%
    02:00 +6°C° 0.1 mm 8 mps 756 mmHg 88%
    03:00 +7°C° 0.1 mm 8 mps 755 mmHg 88%
    04:00 +7°C° 0.1 mm 8 mps 755 mmHg 88%
    05:00 +7°C° 0.1 mm 9 mps 754 mmHg 87%
    06:00 +7°C° 0.1 mm 9 mps 753 mmHg 87%
    07:00 +7°C° 0.3 mm 10 mps 753 mmHg 88%
    08:00 +7°C° 0.3 mm 11 mps 752 mmHg 89%
    09:00 +8°C° 0.3 mm 11 mps 751 mmHg 89%
    10:00 +6°C° 1.2 mm 11 mps 752 mmHg 89%
    11:00 +4°C° 1.2 mm 11 mps 753 mmHg 88%
    12:00 +2°C° 1.2 mm 10 mps 753 mmHg 88%
    13:00 +2°C° 0.2 mm 10 mps 755 mmHg 82%
    14:00 +3°C° 0.2 mm 10 mps 756 mmHg 76%
    15:00 +3°C° 0.2 mm 10 mps 758 mmHg 69%
    16:00 +2°C° 0 mm 9 mps 759 mmHg 70%
    17:00 +2°C° 0 mm 7 mps 760 mmHg 71%
    18:00 +1°C° 0 mm 6 mps 761 mmHg 72%
    19:00 +1°C° 0 mm 6 mps 762 mmHg 73%
    20:00 +1°C° 0 mm 6 mps 763 mmHg 74%
    21:00 +1°C° 0 mm 6 mps 764 mmHg 75%
    22:00 +1°C° 0 mm 6 mps 765 mmHg 77%
    23:00 +1°C° 0 mm 5 mps 765 mmHg 79%

    Tomorrow, 21 February, Friday

    Time Temperature Precipitation Wind Pressure Humidity
    00:00 +1°C° 0 mm 5 mps 766 mmHg 80%
    01:00 +1°C° 0 mm 5 mps 766 mmHg 82%
    02:00 +1°C° 0 mm 5 mps 766 mmHg 83%
    03:00 +1°C° 0 mm 5 mps 766 mmHg 84%
    04:00 +2°C° 0 mm 5 mps 766 mmHg 84%
    05:00 +2°C° 0 mm 6 mps 766 mmHg 84%
    06:00 +2°C° 0 mm 6 mps 766 mmHg 85%
    13:00 +7°C° 0 mm 10 mps 765 mmHg 76%
    14:00 +8°C° 0 mm 9 mps 764 mmHg 75%
    15:00 +8°C° 0 mm 9 mps 764 mmHg 75%
    16:00 +7°C° 0 mm 9 mps 764 mmHg 77%
    17:00 +7°C° 0 mm 9 mps 764 mmHg 79%
    18:00 +6°C° 0 mm 8 mps 763 mmHg 82%
    19:00 +6°C° 0 mm 9 mps 763 mmHg 81%
    20:00 +7°C° 0 mm 9 mps 763 mmHg 81%
    21:00 +7°C° 0 mm 9 mps 763 mmHg 81%
    22:00 +7°C° 0 mm 9 mps 763 mmHg 81%
    23:00 +7°C° 0 mm 10 mps 762 mmHg 81%

    Day after tomorrow, 22 February, Saturday

    Time Temperature Precipitation Wind Pressure Humidity
    00:00 +7°C° 0 mm 10 mps 762 mmHg 81%
    01:00 +7°C° 0.4 mm 10 mps 762 mmHg 84%
    02:00 +8°C° 0.4 mm 10 mps 761 mmHg 87%
    03:00 +8°C° 0.4 mm 10 mps 760 mmHg 90%
    04:00 +8°C° 0.3 mm 10 mps 760 mmHg 90%
    05:00 +8°C° 0.3 mm 10 mps 761 mmHg 91%
    06:00 +9°C° 0.3 mm 10 mps 761 mmHg 91%
    07:00 +9°C° 0.1 mm 10 mps 761 mmHg 90%
    08:00 +9°C° 0.1 mm 10 mps 761 mmHg 88%
    09:00 +9°C° 0.1 mm 10 mps 761 mmHg 87%
    10:00 +9°C° 0 mm 10 mps 762 mmHg 83%
    11:00 +9°C° 0 mm 11 mps 762 mmHg 79%
    12:00 +8°C° 0 mm 11 mps 763 mmHg 76%
    13:00 +8°C° 0 mm 11 mps 763 mmHg 75%
    14:00 +8°C° 0 mm 10 mps 763 mmHg 74%
    15:00 +8°C° 0 mm 10 mps 763 mmHg 73%
    16:00 +7°C° 0 mm 9 mps 763 mmHg 75%
    17:00 +7°C° 0 mm 8 mps 764 mmHg 76%
    18:00 +6°C° 0 mm 7 mps 764 mmHg 78%
    19:00 +6°C° 0 mm 7 mps 764 mmHg 79%
    20:00 +6°C° 0 mm 7 mps 765 mmHg 80%
    21:00 +7°C° 0 mm 6 mps 765 mmHg 81%
    22:00 +7°C° 0 mm 6 mps 765 mmHg 82%
    23:00 +7°C° 0 mm 6 mps 765 mmHg 83%

    23 February, Sunday

    Time Temperature Precipitation Wind Pressure Humidity
    00:00 +7°C° 0 mm 6 mps 765 mmHg 84%
    01:00 +7°C° 0.4 mm 5 mps 764 mmHg 87%
    02:00 +7°C° 0.4 mm 5 mps 764 mmHg 90%
    03:00 +7°C° 0.4 mm 5 mps 763 mmHg 93%
    04:00 +7°C° 1.7 mm 5 mps 762 mmHg 94%
    05:00 +7°C° 1.7 mm 6 mps 760 mmHg 95%
    06:00 +8°C° 1.7 mm 6 mps 759 mmHg 96%
    07:00 +9°C° 0.7 mm 8 mps 759 mmHg 94%
    08:00 +9°C° 0.7 mm 11 mps 759 mmHg 91%
    09:00 +10°C° 0.7 mm 13 mps 758 mmHg 88%
    10:00 +10°C° 0.1 mm 12 mps 759 mmHg 86%
    11:00 +9°C° 0.1 mm 11 mps 760 mmHg 83%
    12:00 +10°C° 0.1 mm 9 mps 761 mmHg 80%
    13:00 +10°C° 0.1 mm 9 mps 762 mmHg 78%
    14:00 +9°C° 0.1 mm 8 mps 763 mmHg 76%
    15:00 +9°C° 0.1 mm 8 mps 764 mmHg 74%
    16:00 +8°C° 0 mm 6 mps 765 mmHg 76%
    17:00 +6°C° 0 mm 5 mps 766 mmHg 78%
    18:00 +5°C° 0 mm 4 mps 767 mmHg 79%
    19:00 +4°C° 0 mm 3 mps 768 mmHg 82%
    20:00 +5°C° 0 mm 1 mps 769 mmHg 84%
    21:00 +4°C° 0 mm 0 mps 770 mmHg 87%
    22:00 +5°C° 0 mm 1 mps 770 mmHg 86%
    23:00 +5°C° 0 mm 1 mps 770 mmHg 86%

    24 February, Monday

    Time Temperature Precipitation Wind Pressure Humidity
    00:00 +5°C° 0 mm 1 mps 771 mmHg 86%
    01:00 +4°C° 0 mm 2 mps 770 mmHg 85%
    02:00 +4°C° 0 mm 2 mps 770 mmHg 84%
    03:00 +3°C° 0 mm 3 mps 769 mmHg 83%
    04:00 +3°C° 0 mm 4 mps 769 mmHg 83%
    05:00 +3°C° 0 mm 5 mps 768 mmHg 83%
    06:00 +3°C° 0 mm 5 mps 767 mmHg 83%
    07:00 +4°C° 0.1 mm 6 mps 766 mmHg 86%
    08:00 +5°C° 0.1 mm 7 mps 765 mmHg 90%
    09:00 +6°C° 0.1 mm 7 mps 764 mmHg 93%
    10:00 +9°C° 0 mm 8 mps 763 mmHg 91%
    11:00 +10°C° 0 mm 8 mps 763 mmHg 90%
    12:00 +11°C° 0 mm 9 mps 762 mmHg 88%
    13:00 +12°C° 0 mm 9 mps 761 mmHg 85%
    14:00 +12°C° 0 mm 10 mps 760 mmHg 82%
    15:00 +12°C° 0 mm 10 mps 759 mmHg 79%
    16:00 +11°C° 0.1 mm 10 mps 759 mmHg 81%
    17:00 +10°C° 0.1 mm 9 mps 758 mmHg 83%
    18:00 +8°C° 0.1 mm 9 mps 758 mmHg 85%
    19:00 +8°C° 0.4 mm 9 mps 758 mmHg 87%
    20:00 +9°C° 0.4 mm 8 mps 758 mmHg 90%
    21:00 +9°C° 0.4 mm 8 mps 758 mmHg 92%
    22:00 +8°C° 0.3 mm 7 mps 758 mmHg 90%
    23:00 +7°C° 0.3 mm 6 mps 758 mmHg 89%

    25 February, Tuesday

    Time Temperature Precipitation Wind Pressure Humidity
    00:00 +7°C° 0.3 mm 6 mps 758 mmHg 87%
    01:00 +6°C° 0 mm 5 mps 758 mmHg 87%
    02:00 +5°C° 0 mm 4 mps 757 mmHg 87%
    03:00 +5°C° 0 mm 4 mps 757 mmHg 86%
    04:00 +4°C° 0 mm 4 mps 757 mmHg 85%
    05:00 +4°C° 0 mm 4 mps 757 mmHg 84%
    06:00 +4°C° 0 mm 4 mps 757 mmHg 84%
    07:00 +4°C° 0 mm 4 mps 757 mmHg 81%
    08:00 +5°C° 0 mm 5 mps 757 mmHg 79%
    09:00 +5°C° 0 mm 5 mps 757 mmHg 77%
    10:00 +5°C° 0 mm 6 mps 757 mmHg 74%
    11:00 +5°C° 0 mm 7 mps 756 mmHg 71%
    12:00 +6°C° 0 mm 8 mps 756 mmHg 68%
    13:00 +6°C° 0 mm 8 mps 756 mmHg 68%
    14:00 +6°C° 0 mm 8 mps 756 mmHg 68%
    15:00 +6°C° 0 mm 8 mps 755 mmHg 68%
    16:00 +5°C° 0 mm 7 mps 755 mmHg 72%
    17:00 +4°C° 0 mm 7 mps 754 mmHg 77%
    18:00 +4°C° 0 mm 6 mps 754 mmHg 81%
    19:00 +3°C° 0.1 mm 6 mps 754 mmHg 82%
    20:00 +3°C° 0.1 mm 6 mps 753 mmHg 82%
    21:00 +3°C° 0.1 mm 6 mps 753 mmHg 83%
    22:00 +3°C° 0.2 mm 7 mps 753 mmHg 82%
    23:00 +1°C° 0.2 mm 8 mps 753 mmHg 80%
    Show more